Tracking 30115 objects as of 9-Feb-2025
HD Live streaming from Space Station
objects crossing your sky now

NOAA 17 DEB

Track NOAA 17 DEB now!
10-day predictions


NORAD ID: 48166
Int'l Code: 2002-032G
Perigee: 720.8 km
Apogee: 738.1 km
Inclination: 98.8 °
Period: 99.2 minutes
Semi major axis: 7100 km
RCS: Unknown
Launch date: June 24, 2002
Source: United States (US)
Launch site: AIR FORCE WESTERN TEST RANGE (AFWTR)

Note: This is SATELLITE DEBRIS
Your satellite tracking list
Your tracking list is empty




NASA's NSSDC Master Catalog

Two Line Element Set (TLE):
1 48166U 02032G   25040.33205095  .00016444  00000-0  41539-2 0  9993
2 48166  98.7809  20.8163 0012151 228.5824 131.4326 14.51029048204672
Source of the keplerian elements: AFSPC